Погода в Хворостянке

Россия / Самарская область     52°36′55″N   48°57′53″E
В апреле 2022 года жителям России запретили посещать сайт meteo.paraplan.net по решению Генеральной прокуратуры. Аудитория сайта уменьшилась в 10 раз. Владельцы сайта не видят смысла в поддержке погодного сервера в таких условиях. Сайт будет закрыт в октябре.
темп.,
°C
ветер,
м/с
пор.,
м/с
влажн.,
%
обл.,
%
осадки,
мм/ч
давл.,
гПа
погр.,
м
30 сентября, пт
пт3001:00+12ссз229720 0.0 101528
04:00+12с349794 0.0 101769
07:00+12св359479 0.0 1019126
10:00+15св337693 0.0 1020653
13:00+16св2267100 0.0 1021826
16:00+17св226499 0.0 1022899
19:00+14всв3479100 0.0 102366
22:00+12всв3383100 0.0 102367
1 октября, сб
сб101:00+11всв2285100 0.0 102337
04:00+11в348699 0.0 102384
07:00+10в229163 0.0 102422
10:00+14вюв22675 0.0 1024347
13:00+18юв22555 0.0 1023887
16:00+19ююв225126 0.0 10221189
19:00+15юв336582 0.0 102229
22:00+14юв457295 0.0 102084
2 октября, вс
вс201:00+15ююв4969100 0.0 1019216
04:00+15ююв4107250 0.0 1018247
07:00+13ююв5117416 0.0 1018204
10:00+16ююв61262100 0.0 1017390
13:00+21ю71054100 0.1 1016999
16:00+19ю7106199 0.1 1015704
19:00+16ююв61276100 0.1 1015366
22:00+16юв61385100 2.9 1014363
3 октября, пн
пн301:00+16ююв51181100 1.7 1014278
04:00+15ююв51279100 1.9 1014310
07:00+13ююв71476100 0.0 1014314
10:00+16ююв81654100 0.0 1015548
13:00+20ююв91543100 0.0 10161010
16:00+20ююв91538100 0.0 10171149
19:00+18ююв91537100 0.0 1018853
22:00+16ююв101734100 0.0 1019787
4 октября, вт
вт401:00+15ююв91729100 0.0 1019721
04:00+14ююв81729100 0.0 1020619
07:00+13ююв81628100 0.0 1021540
10:00+14ююв81529100 0.0 1022664
13:00+17ююв91227100 0.0 1023920
16:00+17ю5927100 0.0 1023951
19:00+16ююв61025100 0.0 1025418
22:00+13ююв71247100 0.0 1026865